Mombasa, Kenya

5:46 AM EAT on September 20, 2017 (GMT +0300)
Mombasa

Weather History for 63820 - August, 2013

Change the Weather History Date:

Tuesday, August 27, 2013

  Actual Average Record
Temperature  
Mean Temperature 74 °F -  
Max Temperature 82 °F 85 °F - ()
Min Temperature 67 °F 67 °F - ()
Cooling Degree Days 10    
Growing Degree Days 24 (Base 50)    
Moisture  
Dew Point 68 °F    
Average Humidity 75    
Maximum Humidity 94    
Minimum Humidity 54    
Precipitation  
Precipitation 0.00 in 0.09 in - ()
Sea Level Pressure  
Sea Level Pressure 30.03 in    
Wind  
Wind Speed 9 mph ()    
Max Wind Speed 18 mph    
Max Gust Speed -    
Visibility 8.8 miles    
Events      
T = Trace of Precipitation, MM = Missing Value Source: Averaged Metar Reports

Daily Weather History Graph

Daily Weather History Graph

Search for Another Location

Airport or City:

Trip Planner

Search our weather history database for the weather conditions in past years. The results will help you decide how hot, cold, wet, or windy it might be!

Date:

Astronomy

Aug. 27, 2013 Rise Set
Actual Time 6:22 AM EAT 6:23 PM EAT
Civil Twilight 6:01 AM EAT 6:44 PM EAT
Nautical Twilight 5:37 AM EAT 7:08 PM EAT
Astronomical Twilight 5:12 AM EAT 7:33 PM EAT
Moon 11:50 PM EAT (8/27) 11:14 AM EAT (8/27)
Length of Visible Light 12h 43m
Length of Day
12h 00m
Waning Gibbous, 60% of the Moon is Illuminated
Aug 27
Waning Gibbous
Aug 28
Last Quarter
Sep 5
New
Sep 12
First Quarter
Sep 19
Full

Hourly Weather History & Observations

Time (EAT) Temp. Heat Index Dew Point Humidity Pressure Visibility Wind Dir Wind Speed Gust Speed Precip Events Conditions
12:00 AM 75.2 °F - 69.8 °F 83% 30.04 in 6.2 mi South 6.9 mph - N/A   Partly Cloudy
3:00 AM 70 °F - 67 °F 89% 30.00 in 19 mi SSW 6.9 mph - -   Scattered Clouds
4:00 AM 69.8 °F - 68.0 °F 94% 30.01 in 6.2 mi SSW 9.2 mph - N/A   Partly Cloudy
5:00 AM 69.8 °F - 68.0 °F 94% 30.01 in 6.2 mi SSW 6.9 mph - N/A   Partly Cloudy
6:00 AM 69.8 °F - 68.0 °F 94% 30.04 in 6.2 mi SW 6.9 mph - N/A   Partly Cloudy
7:00 AM 69.8 °F - 68.0 °F 94% 30.04 in 6.2 mi South 6.9 mph - N/A   Partly Cloudy
8:00 AM 73.4 °F - 69.8 °F 88% 30.06 in 6.2 mi South 9.2 mph - N/A   Partly Cloudy
9:00 AM 77 °F - 70 °F 74% 30.09 in 19 mi South 13.8 mph - -   Scattered Clouds
9:00 AM 77.0 °F - 69.8 °F 78% 30.09 in 6.2 mi South 13.8 mph - N/A   Partly Cloudy
10:00 AM 80.6 °F 82.7 °F 66.2 °F 61% 30.09 in 6.2 mi South 11.5 mph - N/A   Partly Cloudy
11:00 AM 80.6 °F 83.2 °F 68.0 °F 65% 30.06 in 6.2 mi South 11.5 mph - N/A   Partly Cloudy
12:00 PM 82.4 °F 85.4 °F 68.0 °F 62% 30.04 in 6.2 mi SE 13.8 mph - N/A   Partly Cloudy
1:00 PM 82.4 °F 85.4 °F 68.0 °F 62% 30.04 in 6.2 mi SSE 11.5 mph - N/A   Partly Cloudy
2:00 PM 82.4 °F 85.4 °F 68.0 °F 62% 30.01 in 6.2 mi SSE 12.7 mph - N/A   Partly Cloudy
3:00 PM 81 °F - 67 °F 54% 29.99 in 19 mi South 13.8 mph - -   Scattered Clouds
3:00 PM 80.6 °F 83.2 °F 68.0 °F 65% 29.98 in 6.2 mi South 13.8 mph - N/A   Partly Cloudy
4:00 PM 80.6 °F 83.2 °F 68.0 °F 65% 29.98 in 6.2 mi South 11.5 mph - N/A   Scattered Clouds
5:00 PM 80.6 °F 83.2 °F 68.0 °F 65% 30.01 in 6.2 mi SE 17.3 mph - N/A   Scattered Clouds
6:00 PM 78 °F - 69 °F 67% 30.01 in 19 mi SSE 9.2 mph - -   Scattered Clouds
6:00 PM 77.0 °F - 69.8 °F 78% 30.01 in 6.2 mi SSE 9.2 mph - N/A   Partly Cloudy
7:00 PM 77.0 °F - 69.8 °F 78% 30.01 in 6.2 mi South 4.6 mph - N/A   Partly Cloudy
8:00 PM 75.2 °F - 69.8 °F 83% 30.04 in 6.2 mi South 10.4 mph - N/A   Partly Cloudy
9:00 PM 76 °F - 68 °F 69% 30.04 in 19 mi South 17.9 mph - -   Scattered Clouds
9:00 PM 75.2 °F - 68.0 °F 78% 30.04 in 6.2 mi South 9.2 mph - N/A   Partly Cloudy
10:00 PM 75.2 °F - 68.0 °F 78% 30.06 in 6.2 mi South 10.4 mph - N/A   Partly Cloudy